EJU75FP LPPT-LPMA

Flight info

Callsign EJU75FP
Flight time 1h 37m
Altitude 37000
Route ULVOT DCT GALPA DCT RAKUN
Aircraft A320/M-SDE3FGHIRWY/LB1

Departure

Time 2026-05-01 09:58
Airport Lisbon Humberto Delgado Airport (LPPT)

Arrival

Time 2026-05-01 11:35
Airport Cristiano Ronaldo International Airport (LPMA)
Time Latitude Longitude Altitude Speed Heading
2026-05-01 09:10 38.77297 -9.13162 334 ft 0 kts 78°
2026-05-01 09:47 38.77296 -9.13171 334 ft 3 kts 78°
2026-05-01 09:47 38.77291 -9.13197 333 ft 3 kts 78°
2026-05-01 09:48 38.77286 -9.13221 335 ft 3 kts 57°
2026-05-01 09:48 38.77273 -9.13238 332 ft 3 kts 18°
2026-05-01 09:48 38.77258 -9.13241 334 ft 0 kts 348°
2026-05-01 09:52 38.77263 -9.13242 333 ft 2 kts 348°
2026-05-01 09:52 38.77302 -9.13254 336 ft 9 kts 340°
2026-05-01 09:52 38.77328 -9.13303 338 ft 5 kts 271°
2026-05-01 09:52 38.77318 -9.13366 350 ft 11 kts 257°
2026-05-01 09:53 38.77304 -9.13451 350 ft 8 kts 258°
2026-05-01 09:53 38.77297 -9.13497 346 ft 4 kts 259°
2026-05-01 09:53 38.77291 -9.13530 355 ft 4 kts 258°
2026-05-01 09:53 38.77283 -9.13577 349 ft 8 kts 257°
2026-05-01 09:54 38.77268 -9.13667 351 ft 13 kts 258°
2026-05-01 09:54 38.77249 -9.13784 353 ft 13 kts 258°
2026-05-01 09:54 38.77214 -9.13852 357 ft 8 kts 209°
2026-05-01 09:54 38.77168 -9.13879 355 ft 7 kts 203°
2026-05-01 09:55 38.77124 -9.13907 355 ft 7 kts 216°
2026-05-01 09:55 38.77118 -9.13972 357 ft 7 kts 292°
2026-05-01 09:55 38.77124 -9.13991 360 ft 0 kts 292°
2026-05-01 09:56 38.77125 -9.13994 359 ft 3 kts 292°
2026-05-01 09:56 38.77141 -9.14043 357 ft 6 kts 292°
2026-05-01 09:56 38.77162 -9.14099 358 ft 9 kts 311°
2026-05-01 09:57 38.77207 -9.14090 362 ft 7 kts 26°
2026-05-01 09:57 38.77424 -9.13972 361 ft 71 kts 23°
2026-05-01 09:57 38.78084 -9.13619 366 ft 133 kts 22°
2026-05-01 09:57 38.79092 -9.13066 436 ft 174 kts 24°
2026-05-01 09:58 38.80196 -9.12437 1079 ft 174 kts 23°
2026-05-01 09:58 38.81324 -9.11813 1683 ft 185 kts 24°
2026-05-01 09:58 38.82495 -9.10931 2078 ft 204 kts 31°
2026-05-01 09:58 38.83784 -9.09917 2506 ft 228 kts 30°
2026-05-01 09:59 38.85144 -9.08879 3397 ft 233 kts 31°
2026-05-01 09:59 38.86598 -9.07791 3927 ft 255 kts 30°
2026-05-01 09:59 38.88133 -9.06485 4494 ft 273 kts 45°
2026-05-01 09:59 38.89136 -9.04418 5277 ft 278 kts 77°
2026-05-01 10:00 38.89107 -9.01984 6187 ft 275 kts 111°
2026-05-01 10:00 38.88216 -8.99818 7025 ft 276 kts 128°
2026-05-01 10:00 38.86876 -8.98068 7787 ft 277 kts 153°
2026-05-01 10:00 38.85083 -8.97229 8672 ft 276 kts 169°
2026-05-01 10:01 38.83169 -8.96958 9495 ft 280 kts 182°
2026-05-01 10:01 38.81282 -8.97393 10309 ft 280 kts 199°
2026-05-01 10:01 38.79423 -8.98293 10834 ft 295 kts 201°
2026-05-01 10:01 38.77449 -8.99326 11073 ft 317 kts 202°
2026-05-01 10:02 38.75387 -9.00440 11649 ft 325 kts 202°
2026-05-01 10:02 38.73294 -9.01582 12374 ft 329 kts 203°
2026-05-01 10:02 38.71176 -9.02736 13124 ft 333 kts 203°
2026-05-01 10:02 38.69034 -9.03894 13867 ft 336 kts 203°
2026-05-01 10:03 38.66869 -9.05059 14566 ft 339 kts 203°
2026-05-01 10:03 38.64717 -9.06215 15232 ft 341 kts 204°
2026-05-01 10:03 38.62521 -9.07392 15901 ft 343 kts 204°
2026-05-01 10:03 38.60314 -9.08571 16573 ft 345 kts 204°
2026-05-01 10:04 38.58092 -9.09756 17273 ft 346 kts 204°
2026-05-01 10:04 38.55864 -9.10944 17946 ft 348 kts 205°
2026-05-01 10:04 38.53621 -9.12140 18588 ft 350 kts 205°
2026-05-01 10:04 38.51362 -9.13343 19125 ft 353 kts 205°
2026-05-01 10:05 38.49080 -9.14555 19663 ft 357 kts 205°
2026-05-01 10:05 38.46780 -9.15777 20207 ft 360 kts 205°
2026-05-01 10:05 38.44492 -9.16992 20731 ft 363 kts 206°
2026-05-01 10:05 38.42198 -9.18345 21267 ft 364 kts 212°
2026-05-01 10:06 38.40116 -9.20178 21801 ft 364 kts 220°
2026-05-01 10:06 38.38103 -9.22159 22336 ft 367 kts 220°
2026-05-01 10:06 38.36069 -9.24151 22865 ft 370 kts 220°
2026-05-01 10:06 38.34016 -9.26153 23379 ft 373 kts 220°
2026-05-01 10:07 38.31943 -9.28166 23856 ft 376 kts 220°
2026-05-01 10:07 38.29855 -9.30191 24275 ft 378 kts 220°
2026-05-01 10:07 38.27783 -9.32199 24671 ft 380 kts 221°
2026-05-01 10:07 38.25674 -9.34245 25091 ft 382 kts 221°
2026-05-01 10:08 38.21433 -9.38367 25897 ft 385 kts 221°
2026-05-01 10:08 38.19298 -9.40437 26287 ft 387 kts 221°
2026-05-01 10:08 38.17152 -9.42514 26673 ft 389 kts 222°
2026-05-01 10:09 38.14997 -9.44599 27054 ft 390 kts 222°
2026-05-01 10:09 38.12833 -9.46692 27435 ft 392 kts 222°
2026-05-01 10:09 38.10694 -9.48760 27849 ft 392 kts 222°
2026-05-01 10:09 38.08520 -9.50858 28233 ft 393 kts 222°
2026-05-01 10:10 38.06339 -9.52963 28601 ft 395 kts 223°
2026-05-01 10:10 38.04152 -9.55076 28948 ft 396 kts 223°
2026-05-01 10:10 37.99752 -9.59328 29620 ft 399 kts 223°
2026-05-01 10:11 37.97584 -9.61519 29936 ft 399 kts 225°
2026-05-01 10:11 37.95449 -9.63780 30254 ft 400 kts 226°
2026-05-01 10:11 37.93337 -9.66077 30518 ft 401 kts 226°
2026-05-01 10:11 37.91224 -9.68392 30774 ft 402 kts 226°
2026-05-01 10:12 37.89128 -9.70673 31025 ft 403 kts 226°
2026-05-01 10:12 37.87684 -9.72230 31190 ft 404 kts 226°
2026-05-01 10:12 37.82683 -9.77562 31849 ft 403 kts 225°
2026-05-01 10:13 37.80536 -9.79831 32195 ft 402 kts 225°
2026-05-01 10:13 37.78397 -9.82090 32549 ft 400 kts 225°
2026-05-01 10:13 37.76267 -9.84341 32857 ft 398 kts 225°
2026-05-01 10:14 37.72075 -9.88782 33551 ft 394 kts 226°
2026-05-01 10:14 37.69976 -9.91008 33880 ft 393 kts 226°
2026-05-01 10:14 37.67884 -9.93220 34206 ft 392 kts 226°
2026-05-01 10:14 37.65800 -9.95423 34493 ft 390 kts 226°
2026-05-01 10:15 37.63722 -9.97620 34774 ft 389 kts 226°
2026-05-01 10:15 37.61802 -9.99979 35048 ft 382 kts 234°
2026-05-01 10:15 37.60145 -10.02580 35302 ft 380 kts 236°
2026-05-01 10:15 37.58499 -10.05182 35552 ft 379 kts 236°
2026-05-01 10:16 37.56877 -10.07738 35789 ft 378 kts 236°
2026-05-01 10:16 37.55234 -10.10324 36023 ft 377 kts 236°
2026-05-01 10:16 37.51959 -10.15472 36477 ft 376 kts 236°
2026-05-01 10:17 37.50323 -10.18036 36667 ft 375 kts 236°
2026-05-01 10:17 37.47062 -10.23141 37109 ft 373 kts 236°
2026-05-01 10:17 37.45437 -10.25680 37195 ft 372 kts 236°
2026-05-01 10:18 37.40617 -10.33214 37203 ft 369 kts 236°
2026-05-01 10:19 37.37401 -10.38250 37203 ft 369 kts 236°
2026-05-01 10:19 37.34175 -10.43273 37206 ft 369 kts 236°
2026-05-01 10:20 37.29352 -10.50770 37204 ft 369 kts 236°
2026-05-01 10:20 37.26124 -10.55782 37203 ft 369 kts 236°
2026-05-01 10:21 37.21275 -10.63292 37179 ft 369 kts 235°
2026-05-01 10:22 37.16445 -10.70763 37191 ft 370 kts 235°
2026-05-01 10:23 37.11579 -10.78272 37199 ft 370 kts 235°
2026-05-01 10:23 37.06703 -10.85771 37208 ft 370 kts 235°
2026-05-01 10:24 37.00220 -10.95723 37211 ft 370 kts 235°
2026-05-01 10:25 36.93720 -11.05670 37195 ft 369 kts 235°
2026-05-01 10:26 36.90495 -11.10604 37200 ft 369 kts 235°
2026-05-01 10:27 36.83981 -11.20522 37204 ft 369 kts 234°
2026-05-01 10:28 36.79088 -11.27938 37199 ft 369 kts 235°
2026-05-01 10:28 36.74231 -11.35324 37211 ft 369 kts 234°
2026-05-01 10:29 36.69342 -11.42724 37212 ft 369 kts 234°
2026-05-01 10:30 36.62835 -11.52539 37192 ft 369 kts 234°
2026-05-01 10:31 36.56295 -11.62371 37192 ft 369 kts 234°
2026-05-01 10:32 36.51413 -11.69711 37187 ft 369 kts 234°
2026-05-01 10:33 36.44848 -11.79524 37195 ft 369 kts 234°
2026-05-01 10:34 36.39927 -11.86883 37197 ft 369 kts 234°
2026-05-01 10:34 36.36661 -11.91751 37167 ft 370 kts 234°
2026-05-01 10:35 36.31704 -11.99117 37175 ft 371 kts 234°
2026-05-01 10:35 36.28394 -12.04034 37180 ft 372 kts 233°
2026-05-01 10:36 36.23441 -12.11379 37187 ft 372 kts 233°
2026-05-01 10:37 36.20117 -12.16301 37189 ft 372 kts 233°
2026-05-01 10:37 36.15125 -12.23676 37195 ft 373 kts 233°
2026-05-01 10:38 36.11795 -12.28591 37197 ft 373 kts 233°
2026-05-01 10:38 36.08482 -12.33467 37171 ft 373 kts 233°
2026-05-01 10:39 36.05141 -12.38375 37176 ft 373 kts 233°
2026-05-01 10:39 36.01799 -12.43282 37180 ft 373 kts 233°
2026-05-01 10:40 35.98450 -12.48178 37179 ft 373 kts 233°
2026-05-01 10:40 35.95124 -12.53047 37181 ft 373 kts 233°
2026-05-01 10:41 35.91772 -12.57945 37180 ft 374 kts 233°
2026-05-01 10:42 35.86733 -12.65291 37181 ft 374 kts 233°
2026-05-01 10:42 35.83374 -12.70189 37184 ft 374 kts 233°
2026-05-01 10:43 35.80035 -12.75052 37165 ft 374 kts 233°
2026-05-01 10:43 35.76667 -12.79950 37168 ft 375 kts 233°
2026-05-01 10:44 35.73291 -12.84846 37172 ft 375 kts 233°
2026-05-01 10:44 35.70481 -12.88915 37171 ft 375 kts 233°
2026-05-01 10:45 35.66549 -12.94603 37175 ft 376 kts 233°
2026-05-01 10:45 35.63156 -12.99500 37178 ft 376 kts 233°
2026-05-01 10:46 35.59758 -13.04392 37181 ft 376 kts 233°
2026-05-01 10:46 35.56930 -13.08453 37180 ft 376 kts 233°
2026-05-01 10:47 35.52980 -13.14137 37188 ft 377 kts 232°
2026-05-01 10:47 35.49579 -13.19030 37164 ft 377 kts 233°
2026-05-01 10:48 35.46739 -13.23102 37165 ft 378 kts 232°
2026-05-01 10:48 35.43314 -13.28006 37168 ft 378 kts 232°
2026-05-01 10:49 35.39329 -13.33697 37171 ft 379 kts 232°
2026-05-01 10:49 35.36479 -13.37769 37171 ft 379 kts 232°
2026-05-01 10:50 35.33048 -13.42667 37172 ft 379 kts 232°
2026-05-01 10:50 35.29617 -13.47559 37173 ft 379 kts 232°
2026-05-01 10:51 35.25618 -13.53242 37183 ft 379 kts 232°
2026-05-01 10:51 35.22726 -13.57331 37187 ft 379 kts 232°
2026-05-01 10:52 35.18723 -13.62999 37188 ft 379 kts 232°
2026-05-01 10:52 35.15864 -13.67052 37186 ft 379 kts 232°
2026-05-01 10:53 35.12422 -13.71926 37188 ft 379 kts 232°
2026-05-01 10:53 35.08967 -13.76798 37189 ft 379 kts 232°
2026-05-01 10:54 35.05539 -13.81631 37190 ft 379 kts 232°
2026-05-01 10:54 35.02088 -13.86488 37212 ft 379 kts 233°
2026-05-01 10:55 34.98642 -13.91338 37203 ft 378 kts 233°
2026-05-01 10:55 34.95200 -13.96169 37194 ft 377 kts 232°
2026-05-01 10:56 34.91784 -14.00960 37150 ft 377 kts 233°
2026-05-01 10:56 34.88339 -14.05781 37157 ft 378 kts 233°
2026-05-01 10:57 34.84880 -14.10604 37162 ft 378 kts 233°
2026-05-01 10:57 34.81423 -14.15434 37172 ft 378 kts 233°
2026-05-01 10:58 34.77986 -14.20232 37178 ft 379 kts 233°
2026-05-01 10:58 34.74524 -14.25058 37195 ft 378 kts 233°
2026-05-01 10:59 34.71056 -14.29870 37194 ft 378 kts 233°
2026-05-01 10:59 34.67593 -14.34681 37194 ft 378 kts 233°
2026-05-01 11:00 34.64152 -14.39456 37148 ft 378 kts 233°
2026-05-01 11:00 34.60684 -14.44258 37162 ft 378 kts 233°
2026-05-01 11:01 34.57212 -14.49058 37176 ft 378 kts 233°
2026-05-01 11:01 34.53732 -14.53849 37178 ft 378 kts 233°
2026-05-01 11:02 34.50263 -14.58644 37176 ft 378 kts 233°
2026-05-01 11:02 34.46811 -14.63399 37177 ft 378 kts 233°
2026-05-01 11:03 34.43333 -14.68180 37178 ft 378 kts 233°
2026-05-01 11:03 34.39858 -14.72961 37181 ft 378 kts 233°
2026-05-01 11:04 34.36273 -14.77636 37180 ft 379 kts 231°
2026-05-01 11:04 34.32620 -14.82186 37153 ft 379 kts 231°
2026-05-01 11:05 34.28943 -14.86763 37156 ft 379 kts 231°
2026-05-01 11:05 34.25294 -14.91375 37160 ft 380 kts 231°
2026-05-01 11:06 34.21643 -14.95994 37153 ft 380 kts 231°
2026-05-01 11:06 34.18004 -15.00577 37157 ft 380 kts 231°
2026-05-01 11:07 34.12503 -15.07497 37139 ft 382 kts 231°
2026-05-01 11:07 34.10664 -15.09809 36872 ft 382 kts 231°
2026-05-01 11:07 34.08820 -15.12119 36613 ft 382 kts 231°
2026-05-01 11:08 34.06974 -15.14431 36362 ft 383 kts 231°
2026-05-01 11:08 34.05128 -15.16749 36121 ft 384 kts 231°
2026-05-01 11:08 34.01444 -15.21377 35592 ft 387 kts 231°
2026-05-01 11:09 33.99573 -15.23713 35349 ft 388 kts 231°
2026-05-01 11:09 33.97694 -15.26052 35110 ft 389 kts 231°
2026-05-01 11:09 33.95807 -15.28398 34866 ft 390 kts 231°
2026-05-01 11:10 33.92030 -15.33108 34126 ft 391 kts 231°
2026-05-01 11:10 33.90157 -15.35441 33643 ft 384 kts 230°
2026-05-01 11:10 33.88312 -15.37737 33150 ft 379 kts 231°
2026-05-01 11:10 33.86515 -15.39972 32671 ft 374 kts 230°
2026-05-01 11:11 33.84716 -15.42209 32196 ft 370 kts 230°
2026-05-01 11:11 33.82937 -15.44420 31724 ft 366 kts 230°
2026-05-01 11:11 33.81174 -15.46608 31258 ft 363 kts 230°
2026-05-01 11:11 33.79427 -15.48776 30799 ft 359 kts 230°
2026-05-01 11:12 33.77697 -15.50925 30340 ft 356 kts 230°
2026-05-01 11:12 33.75981 -15.53059 29851 ft 353 kts 230°
2026-05-01 11:12 33.74286 -15.55167 29407 ft 349 kts 230°
2026-05-01 11:12 33.72629 -15.57217 28976 ft 344 kts 230°
2026-05-01 11:13 33.70971 -15.59262 28557 ft 340 kts 230°
2026-05-01 11:13 33.69331 -15.61287 28142 ft 336 kts 230°
2026-05-01 11:13 33.67712 -15.63288 27738 ft 332 kts 230°
2026-05-01 11:13 33.66112 -15.65266 27344 ft 328 kts 230°
2026-05-01 11:14 33.64529 -15.67224 26953 ft 325 kts 230°
2026-05-01 11:14 33.62959 -15.69167 26574 ft 323 kts 230°
2026-05-01 11:14 33.61397 -15.71095 26196 ft 321 kts 230°
2026-05-01 11:14 33.59863 -15.72987 25826 ft 320 kts 230°
2026-05-01 11:15 33.58319 -15.74892 25455 ft 318 kts 229°
2026-05-01 11:15 33.56780 -15.76789 25035 ft 317 kts 229°
2026-05-01 11:15 33.55247 -15.78673 24607 ft 315 kts 229°
2026-05-01 11:15 33.53698 -15.80527 24186 ft 314 kts 228°
2026-05-01 11:16 33.52137 -15.82358 23746 ft 314 kts 227°
2026-05-01 11:16 33.50571 -15.84179 23253 ft 313 kts 227°
2026-05-01 11:16 33.49014 -15.85988 22807 ft 311 kts 227°
2026-05-01 11:16 33.47468 -15.87787 22367 ft 309 kts 227°
2026-05-01 11:17 33.45952 -15.89557 21930 ft 308 kts 227°
2026-05-01 11:17 33.44424 -15.91344 21496 ft 306 kts 227°
2026-05-01 11:17 33.42903 -15.93123 21044 ft 305 kts 227°
2026-05-01 11:17 33.41390 -15.94893 20617 ft 304 kts 227°
2026-05-01 11:18 33.39877 -15.96661 20181 ft 304 kts 227°
2026-05-01 11:18 33.38366 -15.98424 19745 ft 303 kts 227°
2026-05-01 11:18 33.36857 -16.00187 19314 ft 303 kts 227°
2026-05-01 11:18 33.35347 -16.01952 18878 ft 304 kts 227°
2026-05-01 11:19 33.33853 -16.03692 18446 ft 304 kts 227°
2026-05-01 11:19 33.32338 -16.05460 17876 ft 306 kts 227°
2026-05-01 11:19 33.30809 -16.07243 17386 ft 307 kts 227°
2026-05-01 11:19 33.29283 -16.09017 16953 ft 305 kts 227°
2026-05-01 11:20 33.27764 -16.10781 16527 ft 304 kts 227°
2026-05-01 11:20 33.26251 -16.12540 16103 ft 303 kts 227°
2026-05-01 11:20 33.24743 -16.14293 15684 ft 302 kts 227°
2026-05-01 11:20 33.23239 -16.16040 15272 ft 301 kts 227°
2026-05-01 11:21 33.21741 -16.17783 14862 ft 300 kts 227°
2026-05-01 11:21 33.20264 -16.19498 14447 ft 300 kts 227°
2026-05-01 11:21 33.18768 -16.21233 14036 ft 300 kts 227°
2026-05-01 11:21 33.17273 -16.22965 13582 ft 299 kts 226°
2026-05-01 11:22 33.15785 -16.24690 13160 ft 297 kts 226°
2026-05-01 11:22 33.14309 -16.26401 12737 ft 295 kts 226°
2026-05-01 11:22 33.12840 -16.28103 12312 ft 293 kts 226°
2026-05-01 11:22 33.11380 -16.29792 11908 ft 292 kts 226°
2026-05-01 11:23 33.09925 -16.31474 11500 ft 291 kts 226°
2026-05-01 11:23 33.08491 -16.33134 11091 ft 291 kts 226°
2026-05-01 11:23 33.07039 -16.34815 10654 ft 291 kts 226°
2026-05-01 11:23 33.05588 -16.36495 10242 ft 290 kts 225°
2026-05-01 11:24 33.04161 -16.38146 10078 ft 280 kts 225°
2026-05-01 11:24 33.02790 -16.39728 9814 ft 269 kts 225°
2026-05-01 11:24 33.00088 -16.42841 9079 ft 270 kts 225°
2026-05-01 11:25 32.98750 -16.44383 8670 ft 268 kts 225°
2026-05-01 11:25 32.96122 -16.47410 7950 ft 262 kts 225°
2026-05-01 11:25 32.94817 -16.48912 7552 ft 260 kts 224°
2026-05-01 11:26 32.93520 -16.50403 7162 ft 258 kts 224°
2026-05-01 11:26 32.90948 -16.53266 5946 ft 249 kts 222°
2026-05-01 11:26 32.89660 -16.54636 5476 ft 248 kts 222°
2026-05-01 11:27 32.88373 -16.55994 5148 ft 243 kts 222°
2026-05-01 11:27 32.87155 -16.57278 5009 ft 232 kts 222°
2026-05-01 11:27 32.85961 -16.58543 4884 ft 229 kts 222°
2026-05-01 11:27 32.84736 -16.59693 4650 ft 219 kts 216°
2026-05-01 11:28 32.83482 -16.60725 4060 ft 219 kts 216°
2026-05-01 11:28 32.82227 -16.61760 3572 ft 218 kts 216°
2026-05-01 11:28 32.80996 -16.62779 3357 ft 212 kts 216°
2026-05-01 11:29 32.78626 -16.64740 3128 ft 206 kts 216°
2026-05-01 11:29 32.77464 -16.65698 3037 ft 206 kts 216°
2026-05-01 11:29 32.75089 -16.67659 2525 ft 216 kts 216°
2026-05-01 11:30 32.73830 -16.68701 1997 ft 224 kts 215°
2026-05-01 11:30 32.72564 -16.69750 1702 ft 220 kts 215°
2026-05-01 11:30 32.71329 -16.70771 1413 ft 211 kts 216°
2026-05-01 11:30 32.70159 -16.71753 1173 ft 200 kts 217°
2026-05-01 11:31 32.69076 -16.72669 1039 ft 191 kts 216°
2026-05-01 11:31 32.68039 -16.73547 1028 ft 174 kts 216°
2026-05-01 11:31 32.67101 -16.74339 1006 ft 158 kts 215°
2026-05-01 11:31 32.66247 -16.75060 994 ft 145 kts 215°
2026-05-01 11:32 32.65442 -16.75740 1004 ft 140 kts 215°
2026-05-01 11:32 32.64650 -16.76407 996 ft 141 kts 216°
2026-05-01 11:32 32.63960 -16.77222 886 ft 140 kts 237°
2026-05-01 11:32 32.63618 -16.78289 783 ft 141 kts 262°
2026-05-01 11:33 32.63761 -16.79416 776 ft 143 kts 292°
2026-05-01 11:33 32.64395 -16.80326 822 ft 146 kts 325°
2026-05-01 11:33 32.65353 -16.80705 787 ft 148 kts
2026-05-01 11:33 32.66337 -16.80440 767 ft 144 kts 21°
2026-05-01 11:34 32.67272 -16.80011 654 ft 143 kts 24°
2026-05-01 11:34 32.68102 -16.79414 452 ft 140 kts 45°
2026-05-01 11:34 32.68786 -16.78620 230 ft 137 kts 49°
2026-05-01 11:34 32.69424 -16.77872 173 ft 115 kts 45°
2026-05-01 11:35 32.69873 -16.77348 196 ft 67 kts 45°
2026-05-01 11:35 32.70134 -16.77039 188 ft 46 kts 44°
2026-05-01 11:35 32.70291 -16.76857 194 ft 17 kts 43°
2026-05-01 11:35 32.70382 -16.76816 189 ft 9 kts 17°
2026-05-01 11:36 32.70386 -16.76769 196 ft 7 kts 153°
2026-05-01 11:36 32.70341 -16.76796 196 ft 8 kts 224°
2026-05-01 11:36 32.70306 -16.76837 189 ft 7 kts 225°
2026-05-01 11:36 32.70276 -16.76874 188 ft 6 kts 225°
2026-05-01 11:37 32.70246 -16.76909 193 ft 9 kts 225°
2026-05-01 11:37 32.70176 -16.76992 188 ft 16 kts 224°
2026-05-01 11:37 32.70091 -16.77091 188 ft 18 kts 225°
2026-05-01 11:37 32.70012 -16.77171 188 ft 11 kts 201°
2026-05-01 11:38 32.69937 -16.77177 191 ft 11 kts 180°
2026-05-01 11:38 32.69846 -16.77183 183 ft 12 kts 198°
2026-05-01 11:38 32.69784 -16.77243 179 ft 13 kts 226°
2026-05-01 11:38 32.69710 -16.77336 171 ft 18 kts 226°
2026-05-01 11:39 32.69623 -16.77443 169 ft 14 kts 226°
2026-05-01 11:39 32.69568 -16.77510 169 ft 11 kts 226°
2026-05-01 11:39 32.69519 -16.77571 169 ft 10 kts 226°
2026-05-01 11:39 32.69476 -16.77625 169 ft 9 kts 225°
2026-05-01 11:40 32.69432 -16.77613 169 ft 6 kts 139°
2026-05-01 11:40 32.69413 -16.77592 169 ft 0 kts 138°